#timestamp,LO_Frequency,Hit,StdDev 
1610679615.5,286047001.2,N
1610679635.3,286046998.5,P
1610679655.1,286046998.3,N
1610679675.9,286046999.9,N
1610679695.7,286046999.9,N
1610679715.5,286047001.2,N
1610679735.4,286046998.4,N
1610679755.2,286046996.5,N
1610679775.1,286046999.5,N
1610679776.0,286046999.5,N
1610679795.8,286046997.7,N
1610679815.6,286046997.4,N
1610679835.5,286046998.6,N
1610679855.3,286046998.6,N
1610679875.2,286047000.8,N
1610679895.9,286047002.4,N
1610679915.7,286046999.7,N
1610679935.6,286047000.3,N
1610679955.4,286046999.8,N
1610679975.2,286047000.4,N
1610679995.1,286047000.9,N
1610679996.0,286047000.9,N
1610680015.8,286047002.4,N
1610680035.7,286047000.3,N
1610680055.5,286047000.6,N
1610680075.3,286047001.1,N
1610680095.2,286047001.2,N
1610680115.0,286047000.8,N
1610680115.9,286047000.8,N
1610680135.8,286046999.0,N
1610680155.6,286046998.2,N
1610680175.4,286046998.2,N
1610680195.3,286046998.4,N
1610680215.1,286046999.1,N
1610680235.8,286046997.3,N
1610680255.7,286046999.6,N
1610680275.5,286046999.1,N
1610680295.4,286046996.5,N
1610680315.2,286046997.0,N
1610680335.0,286046996.9,N
1610680335.9,286046996.9,N
1610680355.8,286046996.6,N
1610680375.6,286046999.2,N
1610680395.5,286046999.4,N
1610680415.3,286046999.1,N
1610680435.1,286047000.8,N
1610680455.9,286047001.0,N
1610680475.7,286047001.1,N
1610680495.5,286046997.4,N
1610680515.4,286046996.8,N
1610680535.2,286046999.0,N
1610680555.1,286046998.9,N
1610680556.0,286046998.9,N
1610680575.8,286046999.1,N
1610680595.6,286046997.2,N
1610680615.5,286046998.6,N
1610680635.3,286046998.9,N
1610680655.2,286047001.2,N
1610680675.9,286046999.1,N
1610680695.7,286047001.2,N
1610680715.6,286046998.5,N
1610680735.4,286046999.0,N
1610680755.2,286046999.3,N
1610680775.1,286046999.5,N
1610680776.0,286046999.5,N
1610680795.8,286046997.1,N
1610680815.7,286046996.7,N
1610680835.5,286046998.7,N
1610680855.3,286046998.5,N
1610680875.2,286046999.6,N
1610680895.0,286046997.6,N
1610680895.9,286046997.6,N
1610680915.7,286046997.4,N
1610680935.6,286046996.8,N
1610680955.4,286046999.0,N
1610680975.3,286046998.8,N
1610680995.1,286046999.5,N
1610680996.0,286046999.5,N
1610681015.8,286046996.9,N
1610681035.7,286046996.7,N
1610681055.5,286046997.5,N
1610681075.4,286046995.1,Y
1610681095.2,286046999.2,P
1610681115.0,286046999.6,N
1610681115.9,286046999.6,N
1610681135.8,286046999.3,N
1610681155.6,286046999.3,N
1610681175.5,286046998.4,Y
1610681195.3,286047000.6,P
1610681215.1,286047002.3,P
1610681235.9,286046999.8,N
1610681255.7,286047002.4,N
1610681275.5,286047002.1,N
1610681295.4,286046999.7,N
1610681315.2,286047000.1,N
1610681335.1,286046999.9,N
1610681336.0,286046999.9,N
1610681355.8,286046999.9,N
1610681375.6,286047002.6,N
1610681395.5,286047002.2,N
1610681415.3,286047002.2,N
1610681435.2,286047003.8,Y
1610681455.9,286047002.1,P
1610681475.7,286047001.9,P
1610681495.6,286047004.0,P
1610681515.4,286047001.4,N
1610681535.2,286047001.4,N
1610681555.1,286047003.8,Y
1610681556.0,286047003.8,P
1610681575.8,286047004.4,P
1610681595.7,286047004.4,P
1610681615.5,286046999.8,N
1610681635.4,286047001.0,N
1610681655.2,286046998.2,N
1610681675.0,286046998.2,N
1610681675.9,286046998.2,N
1610681695.8,286047000.3,N
1610681715.6,286047000.0,N
1610681735.4,286047000.5,N
1610681755.3,286047000.5,N
1610681775.1,286046998.5,N
1610681795.9,286046999.2,N
1610681815.7,286046999.1,N
1610681835.5,286046998.9,N
1610681855.4,286046999.2,N
1610681875.2,286046995.1,N
1610681895.1,286046995.4,N
1610681896.0,286046995.4,N
1610681915.8,286046995.0,N
1610681935.6,286046996.0,N
1610681955.5,286046995.6,N
1610681975.3,286046995.5,N
1610681995.1,286046993.7,N
1610682015.9,286046995.9,N
1610682035.7,286046995.0,N
1610682055.6,286046997.4,N
1610682075.4,286046996.5,N
1610682095.2,286046998.4,N
1610682115.1,286047000.9,N
1610682116.0,286047000.9,N
1610682135.8,286047000.8,N
1610682155.7,286047001.0,N
1610682175.5,286047001.0,N
1610682195.3,286046999.9,N
1610682215.2,286047000.3,N
1610682235.0,286046998.3,N
1610682235.9,286046998.3,N
1610682255.7,286046997.2,N
1610682275.6,286046997.3,N
1610682295.4,286046999.6,N
1610682315.3,286046999.2,N
1610682335.1,286046997.1,N
1610682355.8,286046997.0,N
1610682375.7,286046997.0,N
1610682395.5,286046997.4,N
1610682415.4,286046996.8,N
1610682435.2,286046998.4,N
1610682455.0,286046999.3,N
1610682455.9,286046999.3,N
1610682475.8,286046999.1,N
1610682495.6,286046999.5,N
1610682515.4,286046996.8,N
1610682535.3,286046998.8,N
1610682555.1,286046999.2,N
1610682575.9,286046999.1,N
1610682595.7,286046998.3,N
1610682615.5,286046996.9,N
1610682635.4,286046997.3,N
1610682655.2,286046997.5,N
1610682675.1,286046997.2,N
1610682676.0,286046997.2,N
1610682695.8,286046998.7,N
1610682715.6,286046996.5,Y
1610682735.5,286047000.4,P
1610682755.3,286047000.8,N
1610682775.1,286047000.4,N
1610682795.9,286047000.3,N
1610682815.7,286046998.8,N
1610682835.6,286046997.4,N
1610682855.4,286046997.1,N
1610682875.2,286046998.7,N
1610682895.1,286046998.9,N
1610682896.0,286046998.9,N
1610682915.8,286046998.3,N
1610682935.7,286046998.6,N
1610682955.5,286047000.2,N
1610682975.3,286047000.0,N
1610682995.2,286047002.8,N
1610683015.0,286047001.0,N
1610683015.9,286047001.0,N
1610683035.8,286047000.2,N
1610683055.6,286047002.0,N
1610683075.4,286047001.9,N
1610683095.3,286047002.0,N
1610683115.1,286046999.9,N
1610683135.8,286047002.2,N
1610683155.7,286047002.4,N
1610683175.5,286047002.0,N
1610683195.4,286047002.0,N
